Content
SEND FEEDBACK

Daily
Averages
Monthly
Summary
Canada

MONTREAL, QUEBEC


Home > North America > Canada > Quebec
Elevation: 35 meters     Latitude: 45 28N     Longitude: 073 45W

WEATHER
 
SELECT A DAY
Number of Records: 198,773;   Date Range: 1/1/95 - 9/17/14
 
SHARE

PRINT THIS DATA

[ ← Previous Day ]
WEATHER ALMANAC - 4 APRIL, 2013
[ Next Day → ]
[ °F ]   °C
Weather ElementAverageHighLow
Temperature2.7 °C9 °C (5:00 pm)-4 °C (5:00 am)
Dewpoint-8.8 °C-6 °C (4:00 pm)-13 °C (2:00 am)
Humidity41.9 %64 % (5:00 am)22 % (2:00 pm)
Barometer1019 hPa1023.7 hPa (7:00 am)1012.9 hPa (11:00 pm)
Wind Speed24.5 km/h42.6 km/h (12:00 pm)
Wind Gust55.5 km/h (1:00 pm)
Weather ElementAverage
Visibility38.9 km
Wind DirectionWSW (243 °)

Weather ElementTotal
Precipitation---
Heating Degree Days15.8 (Base 18.3)
Averaged from 27 records on 4 April, 2013
WEATHER CONDITIONS BREAKOUT
WIND DIRECTION BREAKOUT
WEATHER BY HOUR - 4 APRIL, 2013
[ °F ]   °C
Local TimeTemperatureDewpointHumidityBarometerVisibilityWind DirectionWind SpeedGust SpeedPrecipitationEventsConditions
1:00 AM0 °C-12 °C41 %1022.7 hPa24.1 kmWest (270°)22.2 km/h31.5 km/hClear
2:00 AM-1.1 °C-12.8 °C27 %1022.4 hPa24.1 kmWest (270°)20.4 km/h
2:00 AM-1 °C-13 °C40 %1022.4 hPa24.1 kmWest (270°)18.5 km/hClear
3:00 AM-2 °C-13 °C43 %1022 hPa24.1 kmWest (280°)11.1 km/hPartly Cloudy
4:00 AM-2 °C-11 °C51 %1022.7 hPa24.1 kmWest (260°)14.8 km/hMostly Cloudy
5:00 AM-4 °C-10 °C64 %1023 hPa24.1 kmSW (230°)14.8 km/hPartly Cloudy
6:00 AM-4 °C-10 °C64 %1023.4 hPa24.1 kmWest (260°)13 km/hPartly Cloudy
7:00 AM-3 °C-10 °C59 %1023.7 hPa48.3 kmWSW (240°)20.4 km/hPartly Cloudy
8:00 AM-1.7 °C-8.9 °C45 %1023.7 hPa45.1 kmSW (230°)24.1 km/h
8:00 AM-2 °C-9 °C59 %1023.7 hPa48.3 kmWSW (240°)24.1 km/h33.3 km/hPartly Cloudy
9:00 AM0 °C-9 °C51 %1023.4 hPa48.3 kmSW (230°)25.9 km/hPartly Cloudy
10:00 AM1 °C-8 °C52 %1022.4 hPa48.3 kmSSW (210°)27.8 km/hPartly Cloudy
11:00 AM3 °C-8 °C45 %1021 hPa48.3 kmSW (220°)27.8 km/hPartly Cloudy
12:00 PM4 °C-10 °C36 %1020 hPa48.3 kmSW (220°)42.6 km/h53.8 km/hClear
1:00 PM5 °C-9 °C36 %1018.3 hPa48.3 kmSW (230°)38.9 km/h55.5 km/hPartly Cloudy
2:00 PM7.2 °C-7.2 °C22 %1017.6 hPa45.1 kmSW (220°)31.5 km/hScattered Clouds
2:00 PM7 °C-7 °C37 %1017.3 hPa48.3 kmSW (220°)31.5 km/h48.1 km/hPartly Cloudy
3:00 PM8 °C-7 °C34 %1015.9 hPa48.3 kmSW (230°)40.7 km/h51.8 km/hPartly Cloudy
4:00 PM8 °C-6 °C37 %1014.6 hPa48.3 kmWSW (240°)38.9 km/h51.8 km/hMostly Cloudy
5:00 PM9 °C-6 °C34 %1013.9 hPa48.3 kmWSW (250°)33.3 km/h51.8 km/hMostly Cloudy
6:00 PM8 °C-7 °C34 %1013.2 hPa48.3 kmWest (260°)29.6 km/h38.9 km/hMostly Cloudy
7:00 PM7 °C-8 °C34 %1013.5 hPa48.3 kmWSW (250°)29.6 km/hOvercast
8:00 PM6.1 °C-7.8 °C24 %1013.5 hPa45.1 kmWSW (250°)24.1 km/hOvercast
8:00 PM6 °C-8 °C36 %1013.5 hPa48.3 kmWSW (250°)22.2 km/hOvercast
9:00 PM6 °C-8 °C36 %1013.5 hPa24.1 kmWest (270°)16.7 km/hOvercast
10:00 PM5 °C-7 °C42 %1013.5 hPa24.1 kmWSW (240°)9.3 km/hOvercast
11:00 PM4 °C-6 °C49 %1012.9 hPa24.1 kmSW (220°)7.4 km/hMostly Cloudy
Hourly data recorded from CYUL, located 0 kilometers away from Montreal, Quebec







STORIES FROM OUR PARTNERS